Station SGNW3 - Sheboygan, WI Image indicating link to RSS feed of recent meteorological observations for station SGNW3


Conditions at SGNW3 as of
(4:00 pm CDT)
2100 GMT on 07/20/2024:
     

Click on the graph icon in the table below to see a time series plot of the last five days of that observation.

5-day plot - Wind Direction Wind Direction (WDIR): S ( 180 deg true )
5-day plot - Wind Speed Wind Speed (WSPD): 16 kts
5-day plot - Wind Gust Wind Gust (GST): 16 kts
5-day plot - Atmospheric Pressure Atmospheric Pressure (PRES):30.07 in
5-day plot - Pressure Tendency Pressure Tendency (PTDY):-0.03 in ( Falling )
5-day plot - Air Temperature Air Temperature (ATMP): 71.4 °F
5-day plot - Wind Speed at 10 Meters Wind Speed at 10 meters (WSPD10M): 16 kts
5-day plot - Wind Speed at 20 Meters Wind Speed at 20 meters (WSPD20M): 16 kts
5-day plot -  Wind Speed, Wind Gust and Atmospheric Pressure Combined plot of Wind Speed, Gust, and Air Pressure
Continuous Winds
TIME
(CDT)
5-day plot - Wind Direction WDIR 5-day plot - Wind Speed WSPD
4:00 pmS ( 173 deg ) 14 kts
3:50 pmSSE ( 168 deg ) 13 kts
3:40 pmSSE ( 166 deg ) 12 kts
3:30 pmSSE ( 163 deg ) 12 kts
3:20 pmSSE ( 163 deg ) 11 kts
3:10 pmSSE ( 161 deg ) 11 kts
 
Peak gust during the measurement hour
TIME
(CDT)
5-day plot - Gust Direction GDR 5-day plot - Gust Speed GST
3:59 pmS ( 180 deg ) 16 kts
Previous observations
TIME
(CDT)
5-day plot - Wind Direction
WDIR
 
5-day plot - Wind Speed
WSPD
kts
5-day plot - Wind Gust
GST
kts
5-day plot - Wave Height
WVHT
ft
5-day plot - Dominant Wave Period
DPD
sec
5-day plot - Average Wave Period
APD
sec
5-day plot - Mean Wave Direction
MWD
 
5-day plot - Atmospheric Pressure
PRES
in
5-day plot - Pressure Tendency
PTDY
in
5-day plot - Air Temperature
ATMP
°F
5-day plot - Water Temperature
WTMP
°F
5-day plot - Dew Point
DEWP
°F
5-day plot - Salinity
SAL
psu
5-day plot - Visibility
VIS
nmi
5-day plot - Tide (above MLLW)
TIDE
ft
2024-07-20 03:00 pmSSE 12 13----30.08-0.02 71.2-----
2024-07-20 02:00 pmSSE 11 12----30.09+0.00 72.1-----
2024-07-20 01:00 pmSSE 8 9----30.10+0.00 70.9-----
2024-07-20 12:00 pm SE 9 9----30.10+0.00 72.0-----
2024-07-20 11:00 am W 6 8----30.09+0.00 76.5-----
2024-07-20 10:00 amWNW 6 9----30.09+0.00 75.2-----
2024-07-20 09:00 am W 7 9----30.10+0.02 71.4-----
2024-07-20 08:00 amWNW 12 14----30.10+0.03 70.7-----
2024-07-20 07:00 am W 10 11----30.09+0.02 66.6-----
2024-07-20 06:00 am W 11 13----30.08+0.01 65.8-----
2024-07-20 05:00 am W 10 11----30.07-0.01 65.7-----
2024-07-20 04:00 am W 9 10----30.07-0.02 65.7-----
2024-07-20 03:00 amWSW 8 9----30.06-0.03 66.2-----
2024-07-20 02:00 amWSW 9 11----30.08-0.02 66.6-----
2024-07-20 01:00 amWSW 8 9----30.09-0.01 67.6-----
2024-07-20 12:00 amWSW 8 9----30.10+0.01 67.6-----
2024-07-19 11:00 pm SW 9 11----30.10+0.02 68.4-----
2024-07-19 10:00 pmSSW 11 13----30.10+0.01 69.1-----
2024-07-19 09:00 pmSSW 12 13----30.09+0.00 70.0-----
2024-07-19 08:00 pm S 13 16----30.08-0.02 70.7-----
2024-07-19 07:00 pm S 15 16----30.09-0.03 71.1-----
2024-07-19 06:00 pm S 15 16----30.09-0.03 70.7-----
2024-07-19 05:00 pm S 15 17----30.10-0.03 71.1-----
2024-07-19 04:00 pm S 12 13----30.12-0.02 70.9-----